Weather History for Tehachapi, CA

Change the Weather History Date:

Wednesday, March 21, 2012

  Actual Average Record
Temperature  
Mean Temperature 48 °F -  
Max Temperature 64 °F 58 °F 64 °F (2012)
Min Temperature 32 °F 35 °F 32 °F (2012)
Degree Days  
Heating Degree Days 17    
Moisture  
Dew Point 40 °F    
Average Humidity 52    
Maximum Humidity 87    
Minimum Humidity 37    
Precipitation  
Precipitation 0.00 in - - ()
Sea Level Pressure  
Sea Level Pressure 30.10 in    
Wind  
Wind Speed 7 mph (NW)    
Max Wind Speed 16 mph    
Max Gust Speed 16 mph    
Visibility 8 miles    
Events      
Averages and records for this station are not official NWS values.
T = Trace of Precipitation, MM = Missing Value Source: NWS Daily Summary

Daily Weather History Graph

Daily Weather History Graph

Search for Another Location

Airport:

Trip Planner

Search our weather history database for the weather conditions in past years. The results will help you decide how hot, cold, wet, or windy it might be!

Date:

Astronomy

Mar. 21, 2012 Rise Set
Actual Time 6:55 AM PDT 7:06 PM PDT
Civil Twilight 6:29 AM PDT 7:32 PM PDT
Nautical Twilight 6:00 AM PDT 8:01 PM PDT
Astronomical Twilight 5:30 AM PDT 8:31 PM PDT
Moon 6:08 AM PDT (3/21) 6:37 PM PDT (3/21)
Length of Visible Light 13h 02m
Length of Day
12h 11m
Waning Crescent, 1% of the Moon is Illuminated
Mar 21
Waning Crescent
Mar 22
New
Mar 30
First Quarter
Apr 6
Full
Apr 13
Last Quarter

Hourly Weather History & Observations

Time (PDT) Temp. Windchill Dew Point Humidity Pressure Visibility Wind Dir Wind Speed Gust Speed Precip Events Conditions
12:15 AM - - - N/A% - 9.0 mi North - - N/A   Unknown
12:55 AM - - - N/A% - - North - - N/A   Unknown
1:15 AM - - - N/A% - - North - - N/A   Unknown
1:35 AM - - - N/A% - - North - - N/A   Unknown
1:55 AM - - - N/A% - - North - - N/A   Unknown
2:15 AM - - - N/A% - - North - - N/A   Unknown
2:35 AM - - - N/A% - - North - - N/A   Unknown
2:55 AM - - - N/A% - - North - - N/A   Unknown
3:15 AM - - - N/A% - - North - - N/A   Unknown
3:35 AM - - - N/A% - - North - - N/A   Unknown
3:55 AM - - - N/A% - - North - - N/A   Unknown
4:15 AM - - - N/A% - - North - - N/A   Unknown
4:35 AM - - - N/A% - - North - - N/A   Unknown
4:55 AM - - - N/A% - - North - - N/A   Unknown
5:15 AM - - - N/A% - - North - - N/A   Unknown
5:35 AM - - - N/A% - - North - - N/A   Unknown
5:55 AM - - - N/A% - - North - - N/A   Unknown
6:15 AM - - - N/A% - - North - - N/A   Unknown
6:35 AM - - - N/A% - - North - - N/A   Unknown
6:55 AM 32.0 °F - 28.4 °F 87% 30.17 in 5.0 mi Calm Calm - N/A   Mist
7:15 AM - - - N/A% - - North - - N/A   Unknown
7:35 AM - - - N/A% - - North - - N/A   Unknown
7:55 AM - - - N/A% - - North - - N/A   Unknown
8:15 AM - - - N/A% - - North - - N/A   Unknown
8:35 AM 39.2 °F 34.2 °F 33.8 °F 81% 30.16 in 7.0 mi ESE 6.9 mph - N/A   Unknown
8:55 AM - - - N/A% - - North - - N/A   Unknown
9:15 AM - - - N/A% - - North - - N/A   Unknown
9:55 AM 53.6 °F - 37.4 °F 54% 30.15 in 10.0 mi ESE 5.8 mph - N/A   Clear
10:15 AM 55.4 °F - 37.4 °F 51% 30.15 in 9.0 mi ESE 6.9 mph - N/A   Clear
10:35 AM 57.2 °F - 35.6 °F 44% 30.15 in 10.0 mi SE 6.9 mph - N/A   Clear
10:55 AM 57.2 °F - 35.6 °F 44% 30.15 in 9.0 mi ESE 8.1 mph - N/A   Clear
11:15 AM 59.0 °F - 35.6 °F 42% 30.15 in 9.0 mi ESE 5.8 mph - N/A   Clear
11:35 AM 60.8 °F - 35.6 °F 39% 30.14 in 10.0 mi East 4.6 mph - N/A   Clear
11:55 AM 60.8 °F - 35.6 °F 39% 30.13 in 9.0 mi WSW 3.5 mph - N/A   Clear
12:15 PM 62.6 °F - 35.6 °F 37% 30.13 in 9.0 mi NW 4.6 mph - N/A   Clear
12:35 PM 64.4 °F - 41.0 °F 42% 30.12 in 9.0 mi NW 10.4 mph - N/A   Clear
12:55 PM 62.6 °F - 42.8 °F 48% 30.12 in 8.0 mi NW 11.5 mph - N/A   Clear
1:15 PM 62.6 °F - 42.8 °F 48% 30.12 in 8.0 mi NW 10.4 mph - N/A   Clear
1:35 PM 62.6 °F - 41.0 °F 45% 30.11 in 8.0 mi NW 8.1 mph - N/A   Clear
1:55 PM 62.6 °F - 41.0 °F 45% 30.10 in 7.0 mi NW 8.1 mph - N/A   Clear
2:15 PM 64.4 °F - 42.8 °F 45% 30.10 in 8.0 mi NW 10.4 mph - N/A   Clear
2:35 PM 62.6 °F - 44.6 °F 52% 30.09 in 9.0 mi NW 12.7 mph - N/A   Clear
2:55 PM 62.6 °F - 44.6 °F 52% 30.08 in 8.0 mi NW 13.8 mph - N/A   Clear
3:15 PM 62.6 °F - 42.8 °F 48% 30.08 in 9.0 mi NW 12.7 mph - N/A   Clear
3:35 PM 62.6 °F - 42.8 °F 48% 30.07 in 8.0 mi NW 12.7 mph - N/A   Clear
3:55 PM 64.4 °F - 44.6 °F 49% 30.06 in 9.0 mi NW 10.4 mph 16.1 mph N/A   Clear
4:15 PM 62.6 °F - 44.6 °F 52% 30.06 in 9.0 mi NW 12.7 mph - N/A   Clear
4:35 PM 62.6 °F - 42.8 °F 48% 30.05 in 8.0 mi NW 12.7 mph - N/A   Clear
4:55 PM 62.6 °F - 41.0 °F 45% 30.05 in 8.0 mi NW 12.7 mph - N/A   Clear
5:15 PM 60.8 °F - 41.0 °F 48% 30.05 in 9.0 mi NW 16.1 mph - N/A   Clear
5:35 PM 59.0 °F - 41.0 °F 51% 30.05 in 8.0 mi NW 13.8 mph - N/A   Clear
5:55 PM 59.0 °F - 41.0 °F 51% 30.05 in 8.0 mi NW 13.8 mph - N/A   Clear
6:15 PM 57.2 °F - 41.0 °F 55% 30.06 in 7.0 mi WNW 10.4 mph - N/A   Clear
6:35 PM 55.4 °F - 41.0 °F 58% 30.06 in 7.0 mi NW 9.2 mph - N/A   Clear
6:55 PM 53.6 °F - 41.0 °F 62% 30.07 in 7.0 mi WNW 10.4 mph - N/A   Clear
7:15 PM 51.8 °F - 41.0 °F 67% 30.07 in 6.0 mi NW 9.2 mph - N/A   Haze
7:35 PM 50.0 °F - 41.0 °F 71% 30.07 in 7.0 mi WNW 6.9 mph - N/A   Clear
7:55 PM 50.0 °F - 41.0 °F 71% 30.07 in 6.0 mi Calm Calm - N/A   Haze
8:15 PM 48.2 °F - 41.0 °F 76% 30.08 in 6.0 mi NNW 5.8 mph - N/A   Haze
8:35 PM 48.2 °F - 39.2 °F 71% 30.08 in 6.0 mi West 6.9 mph - N/A   Haze
8:55 PM 46.4 °F 45.2 °F 39.2 °F 76% 30.09 in 6.0 mi WNW 3.5 mph - N/A   Haze
9:15 PM 46.4 °F 44.3 °F 39.2 °F 76% 30.09 in 7.0 mi NW 4.6 mph - N/A   Clear
9:35 PM 46.4 °F 45.2 °F 39.2 °F 76% 30.10 in 7.0 mi NW 3.5 mph - N/A   Clear
9:55 PM 46.4 °F 43.5 °F 37.4 °F 71% 30.10 in 8.0 mi West 5.8 mph - N/A   Clear
10:15 PM 46.4 °F 45.2 °F 39.2 °F 76% 30.10 in 8.0 mi WNW 3.5 mph - N/A   Clear
10:35 PM 46.4 °F 44.3 °F 37.4 °F 71% 30.09 in 8.0 mi NNW 4.6 mph - N/A   Clear
10:55 PM 44.6 °F 43.1 °F 37.4 °F 76% 30.09 in 8.0 mi NNW 3.5 mph - N/A   Clear
11:15 PM 42.8 °F - 37.4 °F 81% 30.08 in 7.0 mi Calm Calm - N/A   Clear
11:35 PM 41.0 °F - 35.6 °F 81% 30.07 in 8.0 mi Calm Calm - N/A   Clear
11:55 PM 39.2 °F - 35.6 °F 87% 30.08 in 8.0 mi Calm Calm - N/A   Clear